Vertical_Velocity
1 -1 0 -2 -2 -2 -0 -1 1 1 3 -1 -2 2 -11 2 1 5 -1 -0 -4 1 -8 1 1 1 -1 -1 -1 -2 1 1 2 3 2 2 -2 1 -2 -2 4 2 2 3 -6 -2 0 -0 0
0 0 -1 -2 -3 -3 -1 -1 2 4 3 -2 -1 3 -4 -3 -0 1 -1 -2 -1 -2 -2 -1 -5 0 1 0 -2 -3 -2 1 1 0 0 2 -3 -0 2 -3 -5 4 1 -0 0 -1 -1 -2 -1
-0 0 -1 -1 -3 -2 -4 -2 -2 2 7 -1 -6 1 -1 0 0 2 -1 -0 4 2 -1 -2 -3 1 -2 -0 2 -1 -2 0 -0 1 1 3 1 1 -3 -0 -11 -1 -0 1 -0 0 0 -1 -1
-1 -0 -2 -5 -3 -2 -3 -2 0 -0 3 7 -13 8 2 -0 1 -3 -0 1 2 -1 2 1 2 -1 -2 3 -4 -4 0 -1 -2 1 -1 0 2 1 1 2 5 -4 -2 -3 2 1 -2 -0 -1
-1 -2 -2 -4 -6 -1 -3 -3 -4 -0 3 1 -1 -0 2 4 3 7 1 1 0 0 -1 -1 1 -2 2 1 2 3 -1 -1 -2 -4 -2 -1 2 2 1 2 2 4 -1 2 1 -0 -1 -1 2
-2 1 1 -5 -5 -4 -2 -3 3 1 2 6 -3 3 -3 -1 5 1 1 1 0 1 2 -0 1 -1 -1 -1 -1 2 4 -3 -1 1 1 -1 -0 -1 -1 1 1 -1 4 -3 1 1 -4 3 1
0 -1 -2 -2 -5 -4 -1 -4 2 4 4 4 2 -5 1 2 -6 -1 -0 0 -0 -1 -1 -1 -1 -1 -0 -1 -2 -3 0 3 -0 -5 -3 -0 0 3 0 4 4 -4 3 3 -0 1 -5 4 2
0 0 0 4 -2 4 -1 -5 -5 -1 7 4 3 2 0 -2 4 -1 -1 0 1 1 0 -0 1 1 -1 1 7 1 -1 6 4 -2 -4 -0 -1 -1 5 -2 -1 2 4 3 1 3 -7 5 3
-0 -2 -0 1 1 7 1 -9 -1 -5 -4 1 3 0 6 4 -1 2 4 1 -0 2 1 1 2 -4 2 0 7 5 3 1 5 6 1 5 -2 1 1 1 -0 1 -3 3 5 2 -5 5 -0
1 -0 2 -1 -0 2 2 0 -3 -3 -2 -3 6 2 5 9 6 5 -1 3 2 2 2 3 1 3 0 2 7 7 3 7 5 -3 5 5 -6 -2 2 1 1 6 2 4 -0 1 -2 4 -1
-2 -1 0 3 -3 10 5 7 2 3 2 7 -5 -6 4 1 7 9 8 8 -1 2 0 4 5 4 1 1 0 9 9 33 1 6 3 -2 5 -3 -6 -2 -2 1 4 1 3 1 -1 2 -0
-2 2 -2 -3 -3 -0 -1 4 3 8 -3 -0 3 2 -4 -3 1 2 5 7 6 6 0 -2 5 3 2 1 -1 5 8 18 0 4 3 -6 2 -6 -2 -2 -3 -3 -1 5 3 1 2 1 0
-3 -5 6 1 1 -2 -2 0 -1 4 3 0 1 1 1 0 -5 -2 2 4 3 7 3 4 -2 0 0 2 2 -4 -0 5 14 3 -13 -0 -10 -5 -5 6 -6 -5 -3 3 3 3 4 -1 2
1 -7 1 -1 1 -0 2 -1 2 1 -1 1 1 1 4 4 5 0 -3 -1 1 4 8 2 0 1 -1 2 5 1 -1 2 4 7 10 5 -5 -9 -11 103 -5 -5 -3 -3 0 3 4 1 2
-2 -3 -6 -2 -4 -3 3 -2 -3 2 1 0 1 1 1 3 1 2 3 2 4 3 1 3 -1 -1 0 -5 -5 3 4 -2 -2 -1 -29 -21 -3 -2 -11 -8 19 -7 1 -5 -5 -1 3 0 3
-3 -4 -2 -2 -6 -1 4 2 4 -1 1 1 -1 -1 -2 1 0 0 -3 -4 -3 -2 1 0 0 -1 -1 -1 -1 0 -1 2 -4 -1 -20 101 -2 5 -10 -11 2 17 2 -5 -6 -5 2 1 3
2 -1 -1 -1 3 -3 3 -1 -1 -1 -2 -4 -5 -3 -2 -2 -1 -1 -0 -2 1 1 -7 -6 -2 0 -4 0 3 -6 -3 -3 -0 -4 1 -5 -10 216 -33 -7 -14 8 -19 62 0 -2 -0 -2 4
1 1 -1 2 -0 6 2 -2 -3 0 3 1 1 2 -1 2 -1 3 -1 -4 0 -0 2 -0 -4 -5 -3 -2 1 2 -6 -1 -2 -2 -3 2 -4 -5 76 -12 -10 -13 -7 -3 -1 7 0 -0 1
3 3 -3 4 2 -2 3 3 2 0 1 3 3 1 2 1 -1 -4 -3 -3 -4 0 -1 -2 -3 2 1 -1 -4 -1 -1 -5 -3 2 -1 -0 7 -5 -5 111 -1 -12 -11 -12 9 7 -1 -1 -3
-2 -2 -3 0 -3 1 1 -1 1 2 -1 -1 0 -1 -5 0 0 1 -2 -2 -4 -0 -2 -3 -1 0 -2 1 -3 -1 0 -5 -2 -0 5 -3 1 -1 -16 -6 111 8 -12 -11 -7 -6 14 -0 -4
0 -1 -1 -1 1 -0 -2 1 -1 -1 1 -1 -0 -1 1 1 1 1 2 -0 -0 2 1 1 -1 -4 -1 -2 -1 0 -3 -2 1 3 -2 3 0 -3 -8 -18 39 80 5 -3 10 1 -3 11 3
-3 1 -0 -0 0 2 -3 -2 -0 -2 -1 -2 -2 -0 1 2 2 2 2 2 4 2 2 -2 -1 1 -3 -5 -1 -3 3 -2 -2 3 2 -4 0 2 -2 -4 -14 44 10 9 20 12 -1 2 4
2 -1 -5 -2 -1 1 -4 -0 -1 -1 -1 -1 -1 -2 1 2 3 2 -2 -1 -1 -1 1 3 -3 -7 -2 -3 -5 2 -1 1 1 1 2 0 0 -3 0 1 2 -16 65 2 13 14 1 -11 5
-4 -3 -3 -4 -2 -2 -4 -2 -3 -4 -0 1 3 4 4 1 -1 -3 -4 -4 -2 0 1 1 0 2 -1 -3 -4 -7 -0 2 -1 3 4 -1 7 -2 -5 4 2 3 -5 -5 51 46 4 -4 -18
-1 -2 -2 -5 -8 -8 -4 -2 -2 -1 -0 1 2 1 -0 -0 -1 0 3 2 3 2 2 2 -0 -1 -0 -3 -5 -7 -5 -3 -2 -2 0 2 5 1 -8 -3 0 8 -5 1 20 -1 -1 -27 60
-1 -10 -7 -7 -7 -5 -4 -3 -3 -3 -2 -2 -2 -1 -0 0 -2 -3 -1 -3 -1 -0 -1 -2 -2 0 0 -2 -3 -2 -6 -5 -2 -4 -9 -1 1 7 -1 -4 -1 -3 -2 6 -15 8 -5 11 22
-4 -6 -9 -2 -4 -4 -4 -5 -3 -3 -4 -3 -3 -3 -2 -2 -1 -1 -1 -5 -2 1 -6 -5 -0 -2 -6 -3 -1 -2 -3 -2 -4 -2 -2 -4 4 -1 5 5 -6 7 -14 -5 -9 -12 13 11 20
-6 -7 -4 -5 -7 -3 -3 -3 -2 0 2 -2 -2 -1 -0 -2 1 -1 -3 -3 -1 -3 -4 -4 -6 -6 -4 -6 -3 -3 -0 -4 -4 0 -6 -4 3 2 3 7 -3 -2 8 -4 -6 -7 -3 11 3
-5 -3 -5 -7 -5 -7 -6 -2 -1 -3 -2 -2 -2 -2 0 1 -0 -1 -4 -4 -3 -6 -5 -3 -7 -5 -5 -4 -3 -2 -2 -6 -4 -4 -2 -11 -4 2 -4 8 -4 -4 3 4 -4 3 7 -7 21
-4 -6 -6 -7 -6 -5 -6 2 -2 -1 -3 -0 -1 -3 -2 -2 0 -1 -2 -1 -1 -2 -3 -3 -4 -4 -4 -4 -3 -3 -2 -2 -7 -2 -5 -6 -9 -1 -0 -3 1 -1 -6 1 4 -12 -7 -9 -7
Height
5907 5907 5907 5906 5906 5900 5899 5898 5898 5898 5895 5892 5891 5892 5888 5889 5888 5890 5884 5884 5884 5882 5881 5882 5882 5881 5880 5880 5878 5878 5877 5877 5877 5876 5875 5875 5875 5874 5872 5869 5869 5868 5869 5867 5866 5866 5865 5863 5862
5903 5904 5904 5902 5902 5898 5896 5895 5896 5894 5893 5890 5888 5887 5885 5883 5882 5881 5881 5881 5878 5879 5879 5877 5874 5875 5875 5876 5874 5875 5874 5874 5874 5874 5873 5873 5873 5872 5870 5869 5867 5866 5867 5866 5866 5864 5865 5864 5862
5899 5899 5900 5898 5897 5895 5895 5894 5892 5889 5887 5886 5881 5881 5880 5878 5878 5877 5878 5877 5875 5876 5875 5875 5873 5871 5869 5869 5870 5871 5870 5870 5870 5870 5870 5870 5871 5870 5869 5868 5866 5865 5865 5865 5865 5864 5864 5864 5863
5894 5895 5895 5893 5891 5890 5890 5890 5889 5886 5883 5883 5877 5874 5874 5873 5872 5873 5872 5870 5870 5871 5872 5871 5871 5868 5866 5864 5862 5864 5865 5866 5866 5866 5867 5867 5868 5867 5867 5866 5865 5863 5863 5864 5864 5863 5862 5863 5863
5888 5889 5888 5886 5884 5882 5882 5882 5881 5881 5878 5875 5872 5868 5867 5866 5866 5865 5864 5863 5865 5865 5865 5865 5865 5865 5864 5862 5859 5858 5858 5861 5862 5862 5862 5863 5864 5864 5864 5865 5862 5862 5861 5862 5862 5862 5861 5863 5863
5881 5883 5881 5880 5876 5875 5873 5873 5872 5871 5870 5867 5864 5861 5860 5859 5858 5859 5858 5857 5856 5856 5856 5856 5856 5858 5858 5857 5856 5855 5854 5852 5855 5857 5858 5858 5860 5861 5861 5862 5860 5859 5859 5860 5860 5861 5861 5861 5862
5874 5874 5873 5872 5868 5867 5867 5864 5865 5863 5862 5860 5858 5856 5854 5852 5851 5850 5849 5848 5847 5847 5847 5846 5845 5846 5847 5848 5848 5848 5846 5846 5846 5850 5852 5852 5854 5855 5856 5858 5858 5856 5857 5857 5858 5859 5860 5860 5862
5865 5865 5863 5862 5862 5860 5858 5855 5854 5854 5853 5852 5850 5848 5848 5845 5844 5843 5841 5840 5839 5838 5837 5837 5837 5836 5837 5837 5835 5836 5839 5840 5840 5841 5845 5845 5847 5849 5851 5853 5854 5854 5854 5855 5855 5856 5858 5858 5860
5855 5854 5853 5852 5852 5853 5851 5850 5848 5846 5844 5843 5842 5840 5839 5839 5836 5833 5833 5833 5831 5829 5828 5827 5826 5826 5827 5827 5827 5827 5830 5830 5832 5835 5838 5839 5841 5842 5844 5847 5849 5851 5851 5851 5853 5853 5856 5856 5858
5847 5845 5844 5844 5843 5842 5840 5839 5838 5836 5834 5831 5831 5829 5827 5826 5826 5825 5823 5820 5819 5818 5817 5817 5816 5816 5817 5818 5818 5817 5820 5817 5820 5824 5826 5833 5834 5835 5837 5841 5845 5845 5847 5847 5850 5852 5853 5854 5856
5837 5836 5835 5833 5831 5830 5828 5828 5826 5824 5822 5820 5818 5814 5815 5815 5814 5812 5811 5811 5809 5805 5804 5805 5804 5806 5806 5808 5810 5809 5812 5816 5813 5811 5815 5824 5827 5828 5829 5833 5838 5840 5841 5843 5846 5848 5850 5851 5853
5827 5826 5822 5819 5817 5816 5814 5811 5809 5809 5808 5807 5805 5804 5802 5799 5798 5797 5796 5796 5796 5794 5793 5791 5792 5792 5794 5796 5799 5800 5800 5800 5801 5801 5802 5810 5817 5820 5823 5825 5828 5833 5834 5837 5840 5844 5846 5847 5850
5817 5815 5813 5810 5807 5804 5801 5797 5795 5792 5791 5791 5790 5788 5787 5786 5785 5783 5781 5778 5778 5777 5778 5779 5779 5779 5781 5784 5786 5786 5789 5792 5793 5792 5796 5798 5803 5810 5815 5813 5821 5824 5828 5830 5833 5838 5841 5842 5846
5808 5804 5802 5799 5797 5795 5791 5789 5785 5781 5778 5775 5773 5772 5770 5769 5767 5766 5766 5765 5763 5762 5762 5761 5763 5767 5768 5772 5775 5775 5777 5780 5780 5784 5787 5765 5789 5796 5799 5793 5810 5816 5819 5822 5825 5830 5835 5837 5840
5798 5795 5791 5788 5785 5781 5778 5774 5770 5767 5764 5761 5757 5755 5752 5750 5748 5747 5746 5747 5748 5747 5747 5749 5751 5751 5755 5757 5760 5762 5764 5766 5768 5774 5779 5774 5774 5783 5789 5796 5802 5806 5812 5813 5816 5820 5827 5833 5835
5789 5786 5782 5778 5775 5772 5769 5764 5761 5755 5751 5748 5744 5741 5739 5737 5734 5731 5730 5730 5730 5731 5733 5735 5736 5739 5740 5741 5743 5746 5749 5752 5754 5759 5762 5756 5763 5774 5774 5781 5787 5779 5796 5806 5808 5812 5817 5826 5829
5782 5777 5772 5770 5766 5763 5760 5754 5750 5745 5741 5737 5733 5729 5724 5720 5716 5714 5713 5713 5714 5714 5715 5717 5720 5722 5724 5724 5728 5733 5734 5737 5740 5743 5747 5749 5757 5742 5760 5767 5772 5778 5787 5788 5800 5805 5809 5815 5822
5774 5770 5765 5761 5759 5755 5752 5746 5740 5736 5731 5725 5721 5716 5712 5707 5702 5699 5696 5695 5695 5695 5697 5698 5700 5702 5707 5710 5710 5715 5719 5721 5723 5727 5730 5734 5740 5750 5755 5756 5764 5769 5775 5782 5789 5796 5801 5807 5812
5768 5763 5758 5754 5751 5748 5742 5736 5731 5726 5720 5714 5707 5702 5698 5694 5690 5686 5684 5682 5680 5679 5677 5677 5678 5682 5685 5689 5695 5697 5701 5704 5707 5709 5713 5717 5724 5731 5739 5725 5749 5757 5761 5769 5777 5783 5788 5795 5802
5762 5757 5752 5746 5742 5737 5730 5724 5717 5711 5706 5701 5697 5692 5689 5685 5682 5678 5675 5672 5670 5668 5666 5663 5663 5664 5667 5669 5673 5678 5681 5686 5690 5693 5697 5701 5706 5715 5723 5729 5729 5740 5753 5756 5763 5770 5777 5784 5790
5755 5750 5745 5738 5731 5724 5718 5712 5705 5700 5695 5691 5689 5687 5686 5682 5678 5674 5670 5667 5664 5661 5657 5655 5652 5651 5652 5652 5654 5657 5662 5665 5670 5675 5678 5684 5691 5698 5705 5713 5708 5721 5733 5745 5753 5760 5765 5773 5781
5749 5744 5737 5729 5722 5716 5709 5705 5697 5692 5687 5685 5684 5682 5679 5676 5672 5669 5665 5662 5659 5655 5652 5648 5645 5642 5639 5638 5637 5638 5642 5646 5649 5654 5658 5664 5670 5681 5688 5695 5703 5710 5715 5727 5736 5748 5754 5759 5768
5744 5738 5731 5724 5717 5710 5703 5699 5693 5689 5686 5683 5680 5678 5676 5673 5669 5664 5660 5658 5654 5650 5646 5643 5639 5635 5631 5626 5624 5624 5624 5626 5630 5631 5637 5642 5650 5659 5668 5674 5685 5687 5694 5703 5714 5731 5740 5746 5755
5739 5732 5726 5718 5711 5704 5699 5695 5690 5687 5685 5682 5679 5676 5672 5668 5664 5660 5657 5654 5650 5646 5642 5638 5634 5630 5624 5618 5613 5610 5610 5611 5612 5614 5617 5622 5628 5639 5645 5653 5664 5672 5683 5693 5700 5711 5724 5736 5744
5735 5729 5723 5716 5707 5702 5697 5694 5690 5686 5683 5680 5676 5673 5668 5664 5661 5656 5653 5649 5645 5640 5636 5631 5627 5623 5618 5612 5607 5600 5597 5596 5597 5597 5600 5603 5608 5616 5627 5633 5641 5654 5666 5672 5678 5693 5700 5714 5721
5734 5728 5721 5713 5707 5702 5697 5693 5689 5685 5681 5677 5673 5668 5664 5660 5655 5651 5647 5642 5638 5633 5627 5623 5619 5615 5610 5604 5599 5593 5587 5584 5582 5583 5586 5587 5592 5596 5605 5615 5624 5629 5646 5651 5664 5677 5684 5685 5706
5732 5726 5719 5712 5707 5702 5697 5692 5688 5681 5676 5672 5667 5663 5658 5653 5649 5644 5640 5636 5630 5625 5619 5614 5610 5606 5602 5597 5591 5584 5578 5573 5571 5571 5573 5574 5576 5581 5585 5594 5606 5612 5624 5634 5652 5663 5670 5681 5688
5730 5724 5718 5710 5705 5700 5696 5691 5686 5680 5674 5669 5663 5658 5652 5647 5643 5637 5632 5628 5622 5617 5612 5607 5601 5597 5592 5588 5582 5576 5569 5563 5561 5561 5561 5561 5564 5566 5568 5574 5586 5598 5604 5615 5628 5645 5653 5665 5676
5728 5723 5717 5711 5705 5700 5694 5690 5683 5677 5671 5665 5658 5651 5644 5639 5635 5630 5626 5621 5615 5608 5603 5597 5593 5589 5585 5579 5574 5568 5562 5556 5553 5551 5551 5551 5550 5552 5555 5558 5566 5580 5590 5597 5611 5627 5639 5652 5661
5727 5722 5716 5710 5705 5698 5693 5689 5681 5675 5668 5661 5654 5646 5639 5633 5628 5623 5618 5613 5608 5602 5596 5590 5585 5580 5575 5570 5565 5560 5555 5550 5545 5542 5541 5540 5536 5537 5540 5546 5551 5561 5573 5582 5591 5606 5625 5636 5643